Middletown, OH

12:44 PM EDT on August 23, 2017 (GMT -0400)
Hook Field Municipal

Weather History for KMWO - November, 2012

Change the Weather History Date:

Wednesday, November 14, 2012

  Actual Average (KFFO) Record (KFFO)
Temperature  
Mean Temperature 32 °F -  
Max Temperature 41 °F 50 °F 71 °F (2011)
Min Temperature 23 °F 33 °F 19 °F (1996)
Degree Days  
Heating Degree Days 33    
Moisture  
Dew Point 29 °F    
Average Humidity 87    
Maximum Humidity 100    
Minimum Humidity 60    
Precipitation  
Precipitation 0.00 in - - ()
Sea Level Pressure  
Sea Level Pressure 30.49 in    
Wind  
Wind Speed 3 mph (ENE)    
Max Wind Speed 12 mph    
Max Gust Speed 16 mph    
Visibility 9 miles    
Events      
Averages and records for this station are not official NWS values.
T = Trace of Precipitation, MM = Missing Value Source: NWS Daily Summary

Daily Weather History Graph

Daily Weather History Graph

Search for Another Location

Airport or City:

Trip Planner

Search our weather history database for the weather conditions in past years. The results will help you decide how hot, cold, wet, or windy it might be!

Date:

Astronomy

Nov. 14, 2012 Rise Set
Actual Time 7:21 AM EST 5:22 PM EST
Civil Twilight 6:52 AM EST 5:51 PM EST
Nautical Twilight 6:19 AM EST 6:23 PM EST
Astronomical Twilight 5:48 AM EST 6:55 PM EST
Moon 8:09 AM EST (11/14) 6:10 PM EST (11/14)
Length of Visible Light 10h 59m
Length of Day
10h 01m
New Moon, 1% of the Moon is Illuminated
Nov 14
New Moon
Nov 20
First Quarter
Nov 28
Full
Dec 6
Last Quarter
Dec 13
New

Hourly Weather History & Observations

Time (EST) Temp. Windchill Dew Point Humidity Pressure Visibility Wind Dir Wind Speed Gust Speed Precip Events Conditions
12:15 AM 27.9 °F - 27.9 °F 100% 30.52 in 10.0 mi Calm Calm - N/A   Clear
12:35 AM 27.9 °F - 27.9 °F 100% 30.52 in 10.0 mi Calm Calm - N/A   Clear
12:55 AM 27.9 °F 24.0 °F 27.9 °F 100% 30.53 in 7.0 mi North 3.5 mph - N/A   Clear
1:15 AM 27.7 °F 23.8 °F 27.7 °F 100% 30.52 in 7.0 mi NNE 3.5 mph - N/A   Clear
1:35 AM 27.9 °F - 27.9 °F 100% 30.52 in 10.0 mi Calm Calm - N/A   Clear
1:55 AM 25.3 °F - 25.3 °F 100% 30.52 in 10.0 mi Calm Calm - N/A   Clear
2:15 AM 25.3 °F - 25.3 °F 100% 30.52 in 10.0 mi Calm Calm - N/A   Clear
2:35 AM 25.3 °F 21.1 °F 25.3 °F 100% 30.53 in 10.0 mi North 3.5 mph - N/A   Clear
2:55 AM 25.3 °F 19.7 °F 25.3 °F 100% 30.53 in 10.0 mi NNE 4.6 mph - N/A   Clear
3:15 AM 25.3 °F - 25.3 °F 100% 30.53 in 10.0 mi Calm Calm - N/A   Clear
3:35 AM 27.9 °F - 27.5 °F 99% 30.53 in 10.0 mi Calm Calm - N/A   Clear
3:55 AM 25.3 °F - 25.3 °F 100% 30.53 in 7.0 mi Calm Calm - N/A   Clear
4:15 AM 26.8 °F 22.8 °F 26.8 °F 100% 30.53 in 10.0 mi NNE 3.5 mph - N/A   Clear
4:35 AM 25.3 °F 21.1 °F 25.2 °F 99% 30.53 in 7.0 mi NE 3.5 mph - N/A   Clear
4:55 AM 23.2 °F 18.7 °F 23.2 °F 100% 30.53 in 7.0 mi NNE 3.5 mph - N/A   Clear
5:15 AM 23.7 °F 19.3 °F 23.7 °F 100% 30.53 in 7.0 mi NE 3.5 mph - N/A   Clear
5:35 AM 24.1 °F - 24.1 °F 100% 30.53 in 5.0 mi Calm Calm - N/A   Clear
5:55 AM 23.9 °F - 23.9 °F 100% 30.53 in 7.0 mi Calm Calm - N/A   Clear
6:15 AM 25.3 °F 21.1 °F 25.3 °F 100% 30.54 in 7.0 mi NNE 3.5 mph - N/A   Clear
6:35 AM 25.2 °F - 25.2 °F 100% 30.55 in 10.0 mi Calm Calm - N/A   Clear
6:55 AM 26.6 °F 22.6 °F 26.6 °F 100% 30.55 in 10.0 mi NNE 3.5 mph - N/A   Clear
7:15 AM 25.5 °F - 25.0 °F 98% 30.55 in 10.0 mi Calm Calm - N/A   Clear
7:35 AM 27.9 °F 24.0 °F 27.5 °F 99% 30.56 in 10.0 mi NNE 3.5 mph - N/A   Clear
7:55 AM 27.9 °F - 27.3 °F 98% 30.56 in 7.0 mi Calm Calm - N/A   Clear
8:15 AM 27.9 °F 22.6 °F 27.5 °F 99% 30.56 in 5.0 mi ENE 4.6 mph - N/A   Clear
8:35 AM 27.9 °F 21.5 °F 27.7 °F 99% 30.56 in 7.0 mi NE 5.8 mph - N/A   Clear
8:55 AM 30.2 °F 22.6 °F 29.3 °F 96% 30.55 in 7.0 mi ENE 8.1 mph - N/A   Clear
9:15 AM 32.2 °F 26.7 °F 31.3 °F 96% 30.55 in 7.0 mi ENE 5.8 mph - N/A   Clear
9:35 AM 32.5 °F 28.1 °F 30.9 °F 94% 30.55 in 10.0 mi ENE 4.6 mph - N/A   Clear
9:55 AM 33.4 °F 27.3 °F 30.9 °F 90% 30.55 in 10.0 mi ENE 6.9 mph - N/A   Clear
10:15 AM 35.2 °F 30.3 °F 30.7 °F 84% 30.55 in 10.0 mi ENE 5.8 mph - N/A   Clear
10:35 AM 37.8 °F 30.7 °F 29.7 °F 73% 30.54 in 10.0 mi East 10.4 mph - N/A   Clear
10:55 AM 38.8 °F 31.6 °F 29.1 °F 68% 30.53 in 10.0 mi ESE 11.5 mph 16.1 mph N/A   Clear
11:15 AM 38.8 °F 32.1 °F 28.2 °F 66% 30.53 in 10.0 mi East 10.4 mph - N/A   Clear
11:35 AM 40.1 °F 34.1 °F 29.1 °F 65% 30.53 in 10.0 mi East 9.2 mph - N/A   Clear
11:55 AM 40.1 °F 36.1 °F 28.9 °F 64% 30.52 in 10.0 mi East 5.8 mph - N/A   Clear
12:15 PM 40.1 °F 36.1 °F 28.6 °F 63% 30.51 in 10.0 mi ESE 5.8 mph - N/A   Clear
12:35 PM 40.1 °F 36.1 °F 28.6 °F 63% 30.50 in 10.0 mi ENE 5.8 mph - N/A   Clear
12:55 PM 40.8 °F 35.0 °F 29.1 °F 63% 30.50 in 10.0 mi ENE 9.2 mph - N/A   Clear
1:15 PM 40.8 °F 36.2 °F 28.0 °F 60% 30.49 in 10.0 mi ENE 6.9 mph - N/A   Clear
1:35 PM 40.6 °F 36.0 °F 28.2 °F 61% 30.49 in 10.0 mi NNE 6.9 mph - N/A   Clear
1:55 PM 40.6 °F - 28.2 °F 61% 30.48 in 10.0 mi Calm Calm - N/A   Clear
2:15 PM 41.4 °F 36.8 °F 29.3 °F 62% 30.47 in 10.0 mi NE 6.9 mph - N/A   Clear
2:35 PM 41.4 °F 37.6 °F 29.3 °F 62% 30.46 in 10.0 mi ENE 5.8 mph - N/A   Clear
2:55 PM 41.0 °F 35.2 °F 29.7 °F 64% 30.45 in 10.0 mi NE 9.2 mph - N/A   Clear
3:15 PM 40.6 °F 35.4 °F 30.0 °F 66% 30.44 in 10.0 mi ENE 8.1 mph - N/A   Clear
3:35 PM 41.5 °F 35.9 °F 30.7 °F 65% 30.44 in 10.0 mi ENE 9.2 mph - N/A   Clear
3:55 PM 41.4 °F 35.2 °F 30.7 °F 66% 30.44 in 10.0 mi East 10.4 mph - N/A   Clear
4:15 PM 40.3 °F 33.9 °F 30.6 °F 68% 30.44 in 10.0 mi ENE 10.4 mph - N/A   Clear
4:35 PM 40.1 °F 34.7 °F 30.9 °F 70% 30.44 in 10.0 mi East 8.1 mph - N/A   Clear
4:55 PM 39.0 °F 34.0 °F 31.1 °F 73% 30.44 in 10.0 mi ENE 6.9 mph - N/A   Clear
5:15 PM 37.6 °F 32.3 °F 31.6 °F 79% 30.43 in 10.0 mi ENE 6.9 mph - N/A   Clear
5:35 PM 37.6 °F 33.1 °F 32.0 °F 80% 30.43 in 10.0 mi NE 5.8 mph - N/A   Clear
5:55 PM 37.6 °F - 31.8 °F 80% 30.44 in 10.0 mi Calm Calm - N/A   Clear
6:15 PM 37.6 °F 35.1 °F 32.0 °F 80% 30.44 in 10.0 mi East 3.5 mph - N/A   Clear
6:35 PM 35.1 °F - 32.9 °F 92% 30.44 in 10.0 mi Calm Calm - N/A   Clear
6:55 PM 35.1 °F - 33.3 °F 93% 30.44 in 10.0 mi Calm Calm - N/A   Clear
7:15 PM 35.1 °F 31.0 °F 33.8 °F 95% 30.43 in 10.0 mi ENE 4.6 mph - N/A   Clear
7:35 PM 35.1 °F - 33.4 °F 94% 30.43 in 10.0 mi Calm Calm - N/A   Clear
7:55 PM 35.1 °F - 33.3 °F 93% 30.43 in 10.0 mi Calm Calm - N/A   Clear
8:15 PM 35.1 °F - 32.9 °F 92% 30.42 in 10.0 mi Calm Calm - N/A   Clear
8:35 PM 35.1 °F - 33.3 °F 93% 30.42 in 10.0 mi Calm Calm - N/A   Clear
8:55 PM 32.5 °F - 32.0 °F 98% 30.42 in 10.0 mi Calm Calm - N/A   Clear
9:55 PM 30.4 °F - 30.4 °F 100% 30.42 in 7.0 mi Calm Calm - N/A   Clear
10:15 PM 30.2 °F - 30.2 °F 100% 30.43 in 7.0 mi Calm Calm - N/A   Clear
10:35 PM 30.2 °F - 30.2 °F 100% 30.42 in 10.0 mi Calm Calm - N/A   Clear
10:55 PM 30.2 °F - 30.2 °F 100% 30.42 in 7.0 mi Calm Calm - N/A   Clear
11:15 PM 28.2 °F - 28.2 °F 100% 30.42 in 7.0 mi Calm Calm - N/A   Clear
11:35 PM 28.0 °F - 28.0 °F 100% 30.41 in 7.0 mi Calm Calm - N/A   Clear
11:55 PM 28.4 °F - 28.4 °F 100% 30.40 in 7.0 mi Calm Calm - N/A   Clear